Regional Weather Roundup
Issued by NWS

Home | Current Version | Previous Version | Text Only | Print | Product List | Glossary Off
Versions: 1 2 3 4 5 6 7 8 9 10 11 12 13 14 15 16 17 18 19 20 21 22 23 24 25 26 27 28 29 30 31 32 33 34 35 36 37 38 39 40 41 42 43 44 45 46 47 48 49 50

000
ASUS45 KABQ 071610
RWRNM
NEW MEXICO REGIONAL WEATHER ROUNDUP
NATIONAL WEATHER SERVICE ALBUQUERQUE NM
1000 AM MDT TUE JUL 07 2015

NOTE: "FAIR" MEANS FEW OR NO CLOUDS BELOW 12,000 FEET AGL WITH NO
       SIGNIFICANT WEATHER OR OBSTRUCTIONS TO VISION.

      THIS PRODUCT IS RELEASED AS TWO VERSIONS.  ONE VERSION NEAR
      THE TOP OF THE HOUR CONTAINING PRELIMINARY DATA FROM ALBUQUERQUE
      AND OTHER STATIONS.  A FINAL VERSION WITH ADDITIONAL DATA IS
      ISSUED ABOUT 10 MINUTES AFTER THE HOUR.

NMZ501-503-504-510>518-071700-
NORTHWEST PLATEAU/NORTHCENTRAL MOUNTAINS

CITY           SKY/WX    TMP DP  RH WIND       PRES   REMARKS
FARMINGTON     SUNNY     73  56  54 E7        30.17F
LOS ALAMOS     CLOUDY    60  53  78 S10       30.33S
SANTA FE       CLOUDY    61  55  81 S8        30.28S
TAOS           CLOUDY    61  46  59 W7        30.32S
ANGEL FIRE     CLOUDY    57  50  77 CALM      30.38F

$$
NMZ402-403-502-505>509-071700-
WESTCENTRAL MOUNTAINS/SOUTHWEST MOUNTAINS

CITY           SKY/WX    TMP DP  RH WIND       PRES   REMARKS
GALLUP         SUNNY     71  53  52 SW10      30.25F
GRANTS         MOSUNNY   68  56  67 S14       30.29F
SILVER CITY      N/A     77  55  47 S10       30.23S

$$
NMZ407-409-411-412-071700-
SOUTHERN DESERTS

CITY           SKY/WX    TMP DP  RH WIND       PRES   REMARKS
LORDSBURG      FAIR      81  55  41 W7        30.13S
DEMING         MOSUNNY   79  58  48 E13       30.14S
LAS CRUCES     SUNNY     78  58  50 NE5       30.15F
HOLLOMAN AFB   SUNNY     79  60  52 SE7       30.11S
ALAMOGORDO     SUNNY     79  61  53 S8G18     30.14R
T OR C         PTSUNNY   75  59  57 NE14G21   30.17F

$$
NMZ519>523-071700-
CENTRAL VALLEYS/CENTRAL HIGHLANDS

CITY           SKY/WX    TMP DP  RH WIND       PRES   REMARKS
ALBUQUERQUE    MOSUNNY   70  56  61 E8        30.23F
DOUBLE EAGLE   PTSUNNY   66  57  72 SE8       30.27S
MORIARTY ARPT    N/A     65  55  68 SE6       30.29F
CLINES CORNERS CLOUDY    57  54  89 E10       30.31S
BELEN          FAIR      70  58  66 W9        30.23S
SOCORRO        FAIR      72  56  56 N3        30.20F

$$
NMZ524>526-539-540-071700-
SOUTHCENTRAL MOUNTAINS

CITY           SKY/WX    TMP DP  RH WIND       PRES   REMARKS
RUIDOSO        CLOUDY    59  59 100 S7        30.33S

$$
NMZ527>531-071700-
NORTHEAST HIGHLANDS/NORTHEAST PLAINS

CITY           SKY/WX    TMP DP  RH WIND       PRES   REMARKS
LAS VEGAS      CLOUDY    61  54  77 E6        30.30F
RATON          CLOUDY    58  55  90 S9        30.28S FOG
CLAYTON        CLOUDY    63  52  67 NE15      30.25F HAZE

$$
NMZ532>537-071700-
EASTCENTRAL PLAINS

CITY           SKY/WX    TMP DP  RH WIND       PRES   REMARKS
TUCUMCARI      CLOUDY    66  55  67 E9        30.20F HAZE
CANNON AFB     PTSUNNY   63  60  92 NE16      30.18F FOG
CLOVIS AIRPORT CLOUDY    63  59  88 N15         N/A

$$
NMZ028-029-538-071700-
SOUTHEAST PLAINS

CITY           SKY/WX    TMP DP  RH WIND       PRES   REMARKS
ROSWELL        CLOUDY    70  63  78 N10       30.14F
ARTESIA        CLOUDY    70  68  94 N13       30.14F
CARLSBAD       CLOUDY    74  65  73 N18       30.10S
HOBBS          CLOUDY    72  70  94 N16       30.11S


$$



USA.gov is the U.S. government's official web portal to all federal, state and local government web resources and services.